Location: Astronomy Club of Akron Observatory
(40.9700°N, 81.5606°W)
Time: 09:07:57
(UTC-04:00)

ATLAS 2AS CENTAUR R/B - Visible Passes

Search period start: 03 August 2015 00:00
Search period end: 13 August 2015 00:00
Orbit: 912 x 1300 km, 63.7° (Epoch: 29 June)

Date Brightness Start Highest point End Pass type
(mag) Time Alt. Az. Time Alt. Az. Time Alt. Az.
03 Aug 4.6 03:40:33 11° SSE 03:45:05 21° ESE 03:50:41 10° ENE visible
03 Aug 3.0 05:28:01 10° SW 05:35:16 81° NW 05:43:15 10° NNE visible
04 Aug 5.0 02:58:33 10° ESE 03:00:47 12° ESE 03:03:39 10° E visible
04 Aug 3.1 04:45:01 19° SSW 04:50:31 70° ESE 04:58:22 10° NE visible
05 Aug 3.6 04:01:59 24° S 04:05:55 45° ESE 04:13:18 10° NE visible
05 Aug 3.6 05:49:56 10° WSW 05:57:01 46° NW 06:04:36 10° NNE visible
06 Aug 4.2 03:18:54 23° SE 03:21:28 29° ESE 03:27:55 10° NE visible
06 Aug 3.1 05:06:21 19° SW 05:11:58 65° NW 05:19:53 10° NNE visible
07 Aug 4.6 02:35:46 16° ESE 02:37:07 17° ESE 02:41:55 10° ENE visible
07 Aug 2.9 04:23:14 32° SSW 04:27:06 87° ESE 04:35:04 10° NE visible
08 Aug 3.2 03:40:03 42° S 03:42:25 59° ESE 03:50:07 10° NE visible
08 Aug 3.8 05:27:30 12° WSW 05:33:53 37° NW 05:41:10 10° NNE visible
09 Aug 3.7 02:56:51 36° SE 02:57:53 38° ESE 03:04:57 10° NE visible
09 Aug 3.4 04:44:17 25° WSW 04:48:43 52° NW 04:56:29 10° NNE visible
10 Aug 4.3 02:13:36 24° ESE 02:13:36 24° ESE 02:19:23 10° ENE visible
10 Aug 2.9 04:01:02 43° SW 04:03:45 75° NW 04:11:43 10° NNE visible
10 Aug 4.5 05:50:14 10° W 05:56:16 24° NNW 06:02:25 10° NNE visible
11 Aug 4.9 01:30:19 13° E 01:30:19 13° E 01:32:49 10° ENE visible
11 Aug 2.8 03:17:46 63° S 03:18:57 75° ESE 03:26:52 10° NE visible
11 Aug 4.1 05:05:12 14° W 05:10:50 31° NW 05:17:44 10° NNE visible
12 Aug 3.3 02:34:26 49° ESE 02:34:26 49° ESE 02:41:50 10° NE visible
12 Aug 3.7 04:21:53 27° W 04:25:33 43° NW 04:33:04 10° NNE visible
